Time,TemperatureF,DewpointF,PressureIn,WindDirection,WindDirectionDegrees,WindSpeedMPH,WindSpeedGustMPH,Humidity,HourlyPrecipIn,Conditions,Clouds,dailyrainin,SoftwareType,DateUTC
2013-02-05 00:01:00,24.7,11.0,29.98,NW,321,0.0,3.0,56,0.00,,,0.00,weatherlink.com 1.10,2013-02-05 05:01:00,
2013-02-05 00:16:00,24.7,11.0,29.98,WNW,295,1.0,3.0,57,0.00,,,0.00,weatherlink.com 1.10,2013-02-05 05:16:00,
2013-02-05 00:31:00,24.8,11.0,29.97,North,352,0.0,2.0,56,0.00,,,0.00,weatherlink.com 1.10,2013-02-05 05:31:00,
2013-02-05 00:46:00,24.8,11.0,29.98,WNW,283,0.0,3.0,56,0.00,,,0.00,weatherlink.com 1.10,2013-02-05 05:46:00,
2013-02-05 01:01:00,24.9,10.0,29.98,WNW,298,1.0,2.0,54,0.00,,,0.00,weatherlink.com 1.10,2013-02-05 06:01:00,
2013-02-05 01:16:00,24.9,11.0,29.99,West,275,0.0,2.0,55,0.00,,,0.00,weatherlink.com 1.10,2013-02-05 06:16:00,
2013-02-05 01:31:00,24.8,11.0,29.99,West,266,0.0,2.0,55,0.00,,,0.00,weatherlink.com 1.10,2013-02-05 06:31:00,
2013-02-05 01:46:00,24.6,11.0,29.99,NW,304,0.0,2.0,56,0.00,,,0.00,weatherlink.com 1.10,2013-02-05 06:46:00,
2013-02-05 02:01:00,24.4,11.0,29.99,North,354,0.0,1.0,57,0.00,,,0.00,weatherlink.com 1.10,2013-02-05 07:01:00,
2013-02-05 02:16:00,24.1,12.0,29.99,North,1,0.0,1.0,59,0.00,,,0.00,weatherlink.com 1.10,2013-02-05 07:16:00,
2013-02-05 02:31:00,24.1,12.0,29.99,NW,306,0.0,1.0,60,0.00,,,0.00,weatherlink.com 1.10,2013-02-05 07:31:00,
2013-02-05 02:46:00,24.1,12.0,29.99,NNW,341,0.0,1.0,60,0.00,,,0.00,weatherlink.com 1.10,2013-02-05 07:46:00,
2013-02-05 03:01:00,23.9,12.0,29.99,NNW,333,0.0,1.0,60,0.00,,,0.00,weatherlink.com 1.10,2013-02-05 08:01:00,
2013-02-05 03:16:00,23.8,12.0,29.99,WNW,297,1.0,1.0,60,0.00,,,0.00,weatherlink.com 1.10,2013-02-05 08:16:00,
2013-02-05 03:31:00,23.7,12.0,29.99,ENE,77,0.0,2.0,60,0.00,,,0.00,weatherlink.com 1.10,2013-02-05 08:31:00,
2013-02-05 03:46:00,23.7,12.0,29.99,NNE,27,0.0,3.0,60,0.00,,,0.00,weatherlink.com 1.10,2013-02-05 08:46:00,
2013-02-05 04:01:00,23.6,11.0,29.99,NNW,345,0.0,1.0,59,0.00,,,0.00,weatherlink.com 1.10,2013-02-05 09:01:00,
2013-02-05 04:16:00,23.5,11.0,29.99,NNE,25,0.0,1.0,58,0.00,,,0.00,weatherlink.com 1.10,2013-02-05 09:16:00,
2013-02-05 04:31:00,23.6,11.0,29.99,ENE,57,0.0,2.0,60,0.00,,,0.00,weatherlink.com 1.10,2013-02-05 09:31:00,
2013-02-05 04:46:00,23.5,11.0,29.99,ENE,78,0.0,1.0,59,0.00,,,0.00,weatherlink.com 1.10,2013-02-05 09:46:00,
2013-02-05 05:01:00,23.5,11.0,30.00,NNE,16,0.0,1.0,60,0.00,,,0.00,weatherlink.com 1.10,2013-02-05 10:01:00,
2013-02-05 05:16:00,23.5,11.0,30.00,NE,44,0.0,1.0,60,0.00,,,0.00,weatherlink.com 1.10,2013-02-05 10:16:00,
2013-02-05 05:31:00,23.5,11.0,29.99,East,92,0.0,1.0,60,0.00,,,0.00,weatherlink.com 1.10,2013-02-05 10:31:00,
2013-02-05 05:46:00,23.5,11.0,29.99,NE,45,0.0,1.0,60,0.00,,,0.00,weatherlink.com 1.10,2013-02-05 10:46:00,
2013-02-05 06:01:00,23.5,11.0,30.00,East,82,0.0,1.0,60,0.00,,,0.00,weatherlink.com 1.10,2013-02-05 11:01:00,
2013-02-05 06:17:00,23.5,12.0,30.00,ESE,103,0.0,1.0,61,0.00,,,0.00,weatherlink.com 1.10,2013-02-05 11:17:00,
2013-02-05 06:31:00,23.6,12.0,30.00,ESE,107,0.0,2.0,61,0.00,,,0.00,weatherlink.com 1.10,2013-02-05 11:31:00,
2013-02-05 06:46:00,23.6,12.0,30.00,ENE,71,1.0,3.0,61,0.00,,,0.00,weatherlink.com 1.10,2013-02-05 11:46:00,
2013-02-05 07:02:00,23.7,12.0,30.00,ENE,69,0.0,3.0,61,0.00,,,0.00,weatherlink.com 1.10,2013-02-05 12:02:00,
2013-02-05 07:17:00,23.7,12.0,30.00,ENE,65,0.0,3.0,61,0.00,,,0.00,weatherlink.com 1.10,2013-02-05 12:17:00,
2013-02-05 07:31:00,23.8,12.0,30.01,NNE,32,0.0,2.0,60,0.00,,,0.00,weatherlink.com 1.10,2013-02-05 12:31:00,
2013-02-05 07:46:00,24.0,11.0,30.02,NNE,32,0.0,2.0,59,0.00,,,0.00,weatherlink.com 1.10,2013-02-05 12:46:00,
2013-02-05 08:01:00,24.2,11.0,30.02,NE,51,0.0,2.0,58,0.00,,,0.00,weatherlink.com 1.10,2013-02-05 13:01:00,
2013-02-05 08:16:00,24.4,12.0,30.02,NE,44,0.0,3.0,59,0.00,,,0.00,weatherlink.com 1.10,2013-02-05 13:16:00,
2013-02-05 08:32:00,24.7,12.0,30.02,East,101,0.0,3.0,58,0.00,,,0.00,weatherlink.com 1.10,2013-02-05 13:32:00,
2013-02-05 08:46:00,25.0,12.0,30.02,NE,34,0.0,3.0,58,0.00,,,0.00,weatherlink.com 1.10,2013-02-05 13:46:00,
2013-02-05 09:02:00,25.0,12.0,30.02,NW,304,0.0,3.0,58,0.00,,,0.00,weatherlink.com 1.10,2013-02-05 14:02:00,
2013-02-05 09:17:00,25.1,13.0,30.03,ESE,109,0.0,4.0,61,0.00,,,0.00,weatherlink.com 1.10,2013-02-05 14:17:00,
2013-02-05 09:32:00,24.7,14.0,30.03,NNE,29,1.0,5.0,65,0.00,,,0.00,weatherlink.com 1.10,2013-02-05 14:32:00,
2013-02-05 09:47:00,24.4,15.0,30.03,NE,46,0.0,3.0,68,0.00,,,0.00,weatherlink.com 1.10,2013-02-05 14:47:00,
2013-02-05 10:02:00,24.3,16.0,30.03,NE,49,1.0,5.0,70,0.00,,,0.00,weatherlink.com 1.10,2013-02-05 15:02:00,
2013-02-05 10:17:00,24.4,16.0,30.03,NNE,32,0.0,3.0,71,0.00,,,0.00,weatherlink.com 1.10,2013-02-05 15:17:00,
2013-02-05 10:32:00,24.4,17.0,30.04,NE,51,2.0,3.0,73,0.00,,,0.00,weatherlink.com 1.10,2013-02-05 15:32:00,
2013-02-05 10:47:00,24.3,17.0,30.04,ENE,63,4.0,4.0,75,0.00,,,0.00,weatherlink.com 1.10,2013-02-05 15:47:00,
2013-02-05 11:17:00,24.2,18.0,30.03,NNW,347,0.0,4.0,78,0.00,,,0.00,weatherlink.com 1.10,2013-02-05 16:17:00,
2013-02-05 11:32:00,24.4,18.0,30.03,NNE,18,1.0,2.0,78,0.00,,,0.00,weatherlink.com 1.10,2013-02-05 16:32:00,
2013-02-05 11:47:00,24.6,19.0,30.02,East,101,0.0,3.0,78,0.00,,,0.00,weatherlink.com 1.10,2013-02-05 16:47:00,
2013-02-05 12:02:00,24.6,19.0,30.01,East,86,1.0,4.0,78,0.00,,,0.00,weatherlink.com 1.10,2013-02-05 17:02:00,
2013-02-05 12:17:00,24.5,19.0,30.01,NE,43,0.0,3.0,78,0.00,,,0.00,weatherlink.com 1.10,2013-02-05 17:17:00,
2013-02-05 12:32:00,24.4,19.0,30.01,North,3,0.0,3.0,79,0.00,,,0.00,weatherlink.com 1.10,2013-02-05 17:32:00,
2013-02-05 12:47:00,24.7,19.0,30.00,ENE,58,1.0,2.0,79,0.00,,,0.00,weatherlink.com 1.10,2013-02-05 17:47:00,
2013-02-05 13:02:00,24.8,19.0,30.00,NE,39,1.0,3.0,79,0.00,,,0.00,weatherlink.com 1.10,2013-02-05 18:02:00,
2013-02-05 13:17:00,24.8,19.0,30.00,ENE,77,0.0,4.0,79,0.00,,,0.00,weatherlink.com 1.10,2013-02-05 18:17:00,
2013-02-05 13:32:00,25.0,20.0,30.00,North,11,0.0,3.0,80,0.00,,,0.00,weatherlink.com 1.10,2013-02-05 18:32:00,
2013-02-05 13:47:00,25.0,20.0,29.99,WSW,247,1.0,5.0,80,0.00,,,0.00,weatherlink.com 1.10,2013-02-05 18:47:00,
2013-02-05 14:02:00,25.1,19.0,29.99,ENE,66,0.0,4.0,79,0.00,,,0.00,weatherlink.com 1.10,2013-02-05 19:02:00,
2013-02-05 14:17:00,25.1,19.0,29.99,ENE,77,1.0,7.0,78,0.00,,,0.00,weatherlink.com 1.10,2013-02-05 19:17:00,
2013-02-05 14:32:00,25.4,19.0,29.99,WNW,302,0.0,4.0,78,0.00,,,0.00,weatherlink.com 1.10,2013-02-05 19:32:00,
2013-02-05 14:47:00,25.6,20.0,29.98,ENE,57,0.0,3.0,78,0.00,,,0.00,weatherlink.com 1.10,2013-02-05 19:47:00,
2013-02-05 15:02:00,25.7,20.0,29.98,ENE,75,2.0,4.0,79,0.00,,,0.00,weatherlink.com 1.10,2013-02-05 20:02:00,
2013-02-05 15:17:00,25.9,21.0,29.97,ENE,75,1.0,3.0,80,0.00,,,0.00,weatherlink.com 1.10,2013-02-05 20:17:00,
2013-02-05 15:32:00,26.1,21.0,29.96,NNW,348,1.0,4.0,80,0.00,,,0.00,weatherlink.com 1.10,2013-02-05 20:32:00,
2013-02-05 16:02:00,26.6,22.0,29.96,East,91,1.0,3.0,81,0.00,,,0.00,weatherlink.com 1.10,2013-02-05 21:02:00,
2013-02-05 16:18:00,26.7,22.0,29.95,NE,40,1.0,6.0,82,0.00,,,0.00,weatherlink.com 1.10,2013-02-05 21:18:00,
2013-02-05 16:32:00,26.8,22.0,29.95,SE,143,1.0,4.0,81,0.00,,,0.00,weatherlink.com 1.10,2013-02-05 21:32:00,
2013-02-05 16:47:00,26.7,22.0,29.95,East,94,0.0,4.0,81,0.00,,,0.00,weatherlink.com 1.10,2013-02-05 21:47:00,
2013-02-05 17:02:00,26.7,22.0,29.96,ENE,73,0.0,3.0,81,0.00,,,0.00,weatherlink.com 1.10,2013-02-05 22:02:00,
2013-02-05 17:17:00,26.7,21.0,29.96,ENE,68,2.0,4.0,80,0.00,,,0.00,weatherlink.com 1.10,2013-02-05 22:17:00,
2013-02-05 17:33:00,26.6,22.0,29.96,East,101,2.0,3.0,81,0.00,,,0.00,weatherlink.com 1.10,2013-02-05 22:33:00,
2013-02-05 17:49:00,26.3,22.0,29.95,NE,42,0.0,3.0,83,0.00,,,0.00,weatherlink.com 1.10,2013-02-05 22:49:00,
2013-02-05 18:02:00,26.1,22.0,29.95,East,87,0.0,3.0,85,0.00,,,0.00,weatherlink.com 1.10,2013-02-05 23:02:00,
2013-02-05 18:17:00,25.9,23.0,29.96,East,87,0.0,2.0,87,0.00,,,0.00,weatherlink.com 1.10,2013-02-05 23:17:00,
2013-02-05 18:33:00,25.8,23.0,29.96,ENE,58,0.0,1.0,88,0.00,,,0.00,weatherlink.com 1.10,2013-02-05 23:33:00,
2013-02-05 18:47:00,25.8,23.0,29.96,ENE,62,0.0,1.0,89,0.00,,,0.00,weatherlink.com 1.10,2013-02-05 23:47:00,
2013-02-05 19:02:00,25.7,23.0,29.96,NE,43,0.0,2.0,89,0.00,,,0.00,weatherlink.com 1.10,2013-02-06 00:02:00,
2013-02-05 19:18:00,25.7,23.0,29.96,NE,41,1.0,2.0,90,0.00,,,0.00,weatherlink.com 1.10,2013-02-06 00:18:00,
2013-02-05 19:33:00,25.7,23.0,29.95,NE,34,0.0,2.0,90,0.00,,,0.00,weatherlink.com 1.10,2013-02-06 00:33:00,
2013-02-05 19:48:00,25.7,23.0,29.95,ENE,77,0.0,1.0,90,0.00,,,0.00,weatherlink.com 1.10,2013-02-06 00:48:00,
2013-02-05 20:03:00,25.7,23.0,29.95,NNE,17,0.0,2.0,90,0.00,,,0.00,weatherlink.com 1.10,2013-02-06 01:03:00,
2013-02-05 20:18:00,25.8,23.0,29.95,NNE,18,0.0,1.0,90,0.00,,,0.00,weatherlink.com 1.10,2013-02-06 01:18:00,
2013-02-05 20:33:00,25.9,23.0,29.95,NNW,346,0.0,2.0,90,0.00,,,0.00,weatherlink.com 1.10,2013-02-06 01:33:00,
2013-02-05 20:48:00,26.1,24.0,29.94,NE,36,1.0,1.0,90,0.00,,,0.00,weatherlink.com 1.10,2013-02-06 01:48:00,
2013-02-05 21:03:00,26.2,24.0,29.95,WNW,295,0.0,2.0,90,0.00,,,0.00,weatherlink.com 1.10,2013-02-06 02:03:00,
2013-02-05 21:18:00,26.3,24.0,29.95,NNW,335,0.0,3.0,91,0.00,,,0.00,weatherlink.com 1.10,2013-02-06 02:18:00,
2013-02-05 21:48:00,26.5,24.0,29.95,NW,306,0.0,2.0,91,0.00,,,0.00,weatherlink.com 1.10,2013-02-06 02:48:00,
2013-02-05 22:03:00,26.5,24.0,29.95,NW,320,0.0,2.0,91,0.00,,,0.00,weatherlink.com 1.10,2013-02-06 03:03:00,
2013-02-05 22:18:00,26.5,24.0,29.94,NE,44,2.0,4.0,91,0.00,,,0.00,weatherlink.com 1.10,2013-02-06 03:18:00,
2013-02-05 22:33:00,26.8,25.0,29.93,NW,323,1.0,1.0,91,0.00,,,0.00,weatherlink.com 1.10,2013-02-06 03:33:00,
2013-02-05 22:48:00,26.9,25.0,29.93,North,358,0.0,3.0,91,0.00,,,0.00,weatherlink.com 1.10,2013-02-06 03:48:00,
2013-02-05 23:03:00,27.1,25.0,29.93,WSW,254,0.0,2.0,91,0.00,,,0.00,weatherlink.com 1.10,2013-02-06 04:03:00,
2013-02-05 23:18:00,27.2,25.0,29.93,NW,319,0.0,4.0,91,0.00,,,0.00,weatherlink.com 1.10,2013-02-06 04:18:00,
2013-02-05 23:33:00,27.4,25.0,29.93,NNW,342,0.0,2.0,91,0.00,,,0.00,weatherlink.com 1.10,2013-02-06 04:33:00,
2013-02-05 23:48:00,27.4,25.0,29.93,NW,312,0.0,3.0,91,0.00,,,0.00,weatherlink.com 1.10,2013-02-06 04:48:00,